ROMMA est une association bénévole à but non lucratif. Votre soutien est indispensable : ADHERER à ROMMA ou FAIRE un DON

Val-d'Arly - (73, Savoie)

Beaufortain (2050 m)   Longitude: 06° 35' 21" E   Latitude: 45° 46' 53" N Station romma n°118
 

Détail journalier du     <<     >>

Température Humidité Vent Dir Rafale Dir. rafale Ensol.
Heure (°C) (%) (km/h) (km/h) (min)
01:00 -5.9805SSO10SSO0
02:00 -6.0843SO8OSO0
03:00 -6.68305E0
04:00 -6.48300---0
05:00 -5.9785SSO11SSO0
06:00 -6.77905SSO0
07:00 -4.4613SSO11SO0
08:00 -3.7582SO8SO60
09:00 -4.4628ENE16OSO40
10:00 -3.2542ENE10ENE20
11:00 -3.5658SO13SO60
12:00 -1.8606NE16SSO60
13:00 -1.4667OSO19OSO60
14:00 0.4484SO13OSO60
15:00 0.7542ESE5SE60
16:00 0.9641ESE6OSO50
17:00 -0.6672ENE8ENE30
18:00 -1.7718ENE13E0
19:00 -2.3739E15SE0
20:00 -2.87518ESE27E0
21:00 -1.96711SE23ESE0
22:00 -1.6597SE13SSO0
23:00 -1.8591SSE6SSE0
minuit -1.6574ONO8NO0

Graphique du 20-03-2019

 

Serveur OMMA